Location: Unspecified
(0.0000°N, 0.0000°E)
Time: 06:39:08
(UTC+00:00)

LEMUR 2 GREENBERG - Pass Details

Date: 21 January 2026
Orbit: 478 x 492 km, 97.4° (Epoch: 10 February)

Event Time Altitude Azimuth Distance (km) Brightness Sun altitude
Rises 05:05:12 0° 157° (SSE) 2,579 ? -15.5°
Reaches altitude 10° 05:07:21 10° 149° (SSE) 1,694 ? -15.0°
Maximum altitude 05:10:47 40° 79° (E) 745 ? -14.2°
Drops below altitude 10° 05:14:12 10° 9° (N) 1,683 ? -13.4°
Sets 05:16:21 0° 1° (N) 2,559 ? -12.9°
